Theta_e
318 320 319 318 321 320 320 317 317 317 321 320 319 318 318 320 323 318 307 306 306 306 307 308 309 315 326 327 327 327 323 319 321 320 320 319 321 320 320 325 328 330 328 328 330 331 334 332 333
318 318 317 318 320 319 318 316 317 316 315 316 317 316 314 314 313 314 307 305 305 305 306 307 307 309 317 325 327 327 327 326 325 323 320 319 321 320 319 322 327 333 332 332 333 332 332 332 332
316 316 318 319 319 319 317 315 316 315 314 316 316 311 312 312 311 307 305 304 303 303 304 305 306 307 308 319 326 326 326 326 326 325 323 318 320 319 318 321 325 329 334 334 337 336 334 332 331
316 316 316 318 317 315 315 314 314 315 314 315 314 311 307 305 307 304 304 303 303 303 303 302 303 306 307 308 320 325 325 326 325 325 324 323 321 321 319 321 324 325 329 334 335 335 334 333 330
315 316 318 317 316 314 313 312 312 313 312 314 315 311 307 305 304 303 303 303 303 303 303 302 302 303 305 306 309 317 324 324 324 325 324 322 320 321 321 320 323 326 326 332 334 337 334 332 331
315 315 317 317 315 313 312 311 310 311 310 311 312 310 306 304 304 303 303 303 303 302 302 302 302 303 303 305 306 309 317 324 323 322 322 321 321 320 320 320 321 326 325 330 333 334 335 333 332
314 316 316 316 315 314 313 310 310 310 310 309 308 311 306 304 303 303 303 301 301 301 302 302 302 303 304 304 306 307 310 319 323 322 322 322 322 321 321 321 321 324 323 324 331 334 335 335 332
311 314 314 315 315 313 311 310 308 309 308 306 306 307 307 302 302 302 301 301 301 301 301 302 302 302 303 304 305 307 308 317 323 323 323 322 320 320 321 322 320 321 322 323 325 328 334 335 332
310 314 315 313 314 312 309 310 306 305 306 304 304 303 302 302 302 302 301 301 301 301 301 301 302 302 302 304 305 308 310 311 320 322 322 321 320 320 321 321 320 321 321 322 325 325 329 331 332
313 314 312 311 312 311 307 306 306 306 306 305 304 301 301 301 301 300 299 299 300 300 301 301 301 302 302 303 306 311 313 314 317 319 320 321 320 320 321 320 320 320 320 321 322 325 327 328 328
311 313 311 309 308 307 305 305 304 306 306 302 303 301 300 300 299 298 297 297 298 299 300 300 301 302 303 304 305 310 313 314 315 319 318 319 320 320 320 320 320 319 320 320 321 323 326 326 324
310 308 309 306 305 306 305 304 304 303 302 301 300 299 299 298 297 297 297 297 297 298 299 299 300 301 302 306 308 312 312 313 314 315 318 318 318 319 320 320 319 319 318 319 320 322 323 324 324
309 305 303 303 304 304 304 304 303 301 300 299 299 297 296 295 294 295 295 295 296 297 297 298 298 299 300 303 309 308 310 311 312 316 317 318 319 318 318 318 318 318 318 318 318 319 319 318 318
303 303 303 304 303 303 304 303 304 301 299 299 298 296 295 295 294 294 294 294 295 296 296 297 297 298 300 302 307 309 308 309 310 313 314 317 316 316 316 317 317 317 317 316 315 314 315 313 312
302 304 304 303 303 303 304 303 302 298 299 299 297 296 294 294 294 294 294 294 294 295 295 296 297 297 298 302 306 308 308 308 309 309 312 314 315 315 315 316 316 316 315 314 311 310 313 313 313
304 305 307 303 303 302 303 303 300 298 300 299 297 296 294 293 293 293 293 293 294 294 295 296 296 297 297 298 304 305 306 306 308 309 309 310 312 312 313 313 314 314 314 312 310 309 310 310 308
305 306 306 303 302 302 303 303 300 299 300 298 297 296 295 294 294 294 293 294 294 294 294 294 295 296 296 296 297 303 303 303 303 305 306 307 309 310 311 311 312 312 313 313 311 307 310 309 310
305 304 303 303 302 303 303 302 300 299 299 298 297 296 295 294 294 294 294 294 294 294 294 294 294 294 294 293 293 293 294 298 299 299 303 304 306 308 309 309 309 310 311 311 310 309 308 308 308
304 304 303 301 301 302 302 302 301 299 299 298 297 296 295 294 294 294 294 294 294 294 293 293 293 293 293 293 293 293 293 291 291 293 294 300 303 305 307 307 307 307 307 308 309 308 308 307 306
303 303 303 302 301 302 302 302 300 298 296 296 297 296 295 294 294 294 294 294 294 293 292 292 292 293 294 294 295 296 296 296 293 290 290 292 296 301 302 303 305 306 306 306 307 307 308 306 307
302 303 303 303 301 301 302 302 300 298 296 295 294 294 293 293 294 294 294 293 293 293 292 290 292 293 293 293 294 294 294 296 297 297 290 291 292 293 300 300 302 303 305 305 305 306 306 305 304
303 302 302 302 302 304 301 307 302 299 297 296 295 294 293 292 291 291 291 292 292 292 291 290 291 292 293 294 294 293 294 295 295 296 296 290 294 295 294 297 300 300 301 303 304 304 305 303 303
304 302 302 302 302 302 302 303 302 299 298 297 295 293 292 291 290 290 290 290 291 292 291 290 289 293 293 293 291 290 291 293 292 292 291 293 289 295 296 294 298 299 300 300 301 303 303 303 301
300 301 300 300 301 306 302 301 303 300 301 297 294 292 291 290 290 290 290 289 291 291 291 290 290 293 292 291 289 288 288 288 289 289 290 288 288 287 291 294 294 299 299 299 300 300 301 302 302
299 300 310 308 306 309 298 301 303 301 298 297 294 292 290 290 289 289 289 289 290 291 291 290 290 291 290 290 290 290 290 289 287 287 287 287 287 287 286 287 293 292 296 298 299 299 299 300 300
301 300 311 308 307 303 297 303 301 298 295 293 292 291 289 289 289 289 289 289 290 290 290 290 290 289 289 289 289 289 289 289 288 287 287 287 287 286 286 286 286 292 290 294 299 299 298 298 298
300 301 297 298 289 301 301 299 297 295 294 292 291 290 289 289 289 289 289 289 289 290 290 289 289 288 288 288 289 288 288 286 286 286 286 286 287 286 286 285 286 286 289 287 293 297 298 298 297
300 297 301 301 304 304 300 297 301 296 295 293 292 290 289 288 288 289 289 289 289 289 288 288 288 288 287 287 287 287 285 285 285 286 286 286 286 286 286 286 286 286 286 286 287 289 295 297 297
299 301 298 299 299 305 304 302 299 299 297 295 292 290 289 288 288 288 288 288 288 287 287 287 287 287 287 287 286 285 285 284 284 285 285 286 286 286 286 286 286 285 286 286 286 286 288 295 297
297 300 299 308 300 296 298 301 295 296 297 295 292 289 288 288 288 287 287 287 287 287 287 286 286 286 286 285 285 284 284 284 284 284 284 285 285 285 286 286 286 286 285 286 286 285 286 287 295
Wind_Speed
7 6 5 4 4 8 12 7 5 11 7 11 13 15 19 15 10 5 12 22 28 29 28 28 26 25 21 22 20 18 21 22 22 23 27 31 28 34 37 23 9 24 24 24 23 21 20 20 18
7 6 7 4 6 8 7 6 10 9 3 4 7 6 11 10 12 4 17 26 28 28 27 26 26 24 23 19 18 18 18 18 19 21 23 24 27 34 33 30 12 16 25 26 25 25 24 22 20
7 6 5 4 3 8 7 6 5 6 10 4 5 10 7 6 8 10 18 24 25 26 26 25 25 24 23 20 16 16 16 17 16 17 17 20 21 24 28 28 17 9 25 28 27 28 27 24 22
4 6 8 12 17 11 12 7 5 4 7 8 9 10 9 11 7 16 18 24 26 26 25 24 23 22 20 19 17 13 13 14 14 16 14 16 18 19 23 22 23 16 15 26 28 28 29 22 21
8 6 6 10 14 10 8 9 8 9 4 9 2 8 8 11 13 16 20 24 26 26 24 22 22 21 20 19 17 16 13 14 14 15 13 11 14 20 21 18 16 11 15 18 24 22 23 21 23
5 3 7 8 12 10 10 7 8 10 9 6 10 8 7 11 17 21 21 24 25 25 24 22 20 21 19 19 18 17 16 14 14 14 14 12 12 17 18 16 18 15 15 10 19 21 27 25 26
6 5 8 14 12 8 5 3 9 10 9 11 5 6 5 15 19 21 23 24 24 25 25 25 23 22 20 18 18 17 17 16 15 16 16 15 15 14 20 18 13 18 16 12 10 20 26 31 32
6 5 9 6 8 6 3 4 4 8 10 5 5 5 5 16 19 21 21 23 25 26 27 28 26 25 24 21 18 17 16 15 14 15 17 17 16 16 16 17 15 16 18 17 11 13 25 41 41
6 4 8 6 8 7 4 4 5 7 15 19 9 10 7 13 17 17 19 23 26 28 29 29 31 28 25 25 20 17 16 16 16 17 18 19 18 18 15 15 16 18 18 17 12 12 5 10 25
6 4 4 4 8 10 8 7 6 7 12 13 13 10 11 15 19 24 28 31 34 36 36 35 33 32 28 25 23 19 19 19 18 21 21 21 20 18 16 15 18 19 17 14 12 12 16 9 15
6 5 12 8 10 9 11 14 4 10 9 8 8 9 13 16 20 24 26 29 31 32 32 34 34 34 33 27 24 23 21 22 20 21 22 23 22 19 15 14 17 18 15 11 10 12 17 21 20
9 8 6 5 4 7 9 10 15 15 7 9 10 11 14 19 22 25 28 30 33 34 35 36 37 36 33 29 25 24 23 24 22 20 20 22 25 21 17 14 17 15 13 9 9 14 17 20 23
15 9 8 9 11 11 14 14 15 14 9 9 10 13 17 19 20 24 26 29 31 34 35 37 37 38 36 31 27 23 23 27 25 18 17 18 19 19 18 18 17 14 12 8 7 13 16 17 17
8 15 13 9 10 6 14 10 2 7 1 7 11 15 16 19 21 23 28 30 32 32 34 34 35 35 34 31 26 22 23 25 26 23 21 18 17 17 17 18 15 13 13 9 7 10 14 15 13
11 12 11 10 5 6 13 9 9 8 9 14 13 13 16 19 22 26 26 27 28 30 32 35 36 35 32 30 25 23 22 23 22 23 22 20 18 18 18 16 14 12 11 9 8 8 10 11 15
4 3 4 4 6 2 5 4 10 7 12 14 13 13 14 19 21 23 24 25 27 29 32 33 33 33 34 31 27 26 26 24 24 23 23 21 21 18 17 17 16 13 11 9 7 5 14 14 12
2 4 5 5 7 2 3 9 6 7 10 13 12 13 13 14 18 21 23 24 25 27 29 30 30 30 29 31 28 25 26 26 29 28 26 24 22 20 20 18 15 12 12 11 9 6 9 8 9
7 5 3 4 5 11 13 12 8 7 9 11 11 11 11 13 17 19 19 21 23 25 26 27 29 30 29 28 29 29 27 27 27 30 31 28 24 21 20 15 15 13 12 9 7 9 8 11 17
8 9 7 4 3 4 8 10 7 6 8 8 8 8 10 12 13 16 17 19 21 23 25 26 26 26 27 30 30 30 33 34 33 35 34 30 27 22 18 17 13 11 11 11 9 9 9 13 17
8 10 4 4 5 3 9 9 7 7 5 3 5 7 7 8 10 13 16 18 20 20 20 20 21 23 26 29 32 34 33 33 36 35 32 33 32 26 21 19 14 12 10 11 13 14 12 14 13
4 2 4 2 4 6 11 5 7 5 7 6 5 5 6 10 12 14 15 16 17 17 16 16 17 22 25 28 32 33 32 30 29 33 34 32 33 35 26 24 17 12 11 10 11 15 14 13 17
4 3 6 5 4 2 3 3 10 10 7 5 4 5 7 8 9 12 14 14 13 12 13 12 14 20 24 27 31 30 26 26 25 24 26 31 26 28 33 32 23 20 12 9 8 10 13 13 16
4 5 5 3 2 2 5 4 5 12 10 8 5 3 4 6 9 11 12 13 12 10 9 10 13 19 22 26 29 26 24 25 25 27 24 20 26 24 22 31 30 21 19 14 8 6 11 14 14
15 8 6 3 1 3 4 4 9 11 18 11 7 4 3 3 6 8 10 11 8 8 8 9 12 17 21 23 25 24 25 26 26 25 25 28 27 25 24 24 30 25 22 18 13 6 5 11 15
2 5 2 2 3 3 2 4 7 13 8 12 12 7 3 2 4 7 8 8 6 6 7 9 12 14 18 20 21 22 24 24 25 26 25 26 26 26 27 24 24 28 22 21 18 12 11 8 7
7 4 2 4 3 2 2 6 2 7 11 10 9 7 4 1 2 4 5 7 6 6 7 9 12 14 16 18 20 22 24 23 22 23 23 23 24 25 25 24 24 20 26 19 19 19 13 11 10
5 5 4 7 1 2 3 4 5 9 11 12 12 8 6 3 2 2 2 3 4 6 7 9 12 14 16 17 19 22 21 20 20 20 20 20 20 22 23 23 23 24 20 24 17 17 18 18 10
2 7 3 0 3 5 4 5 8 14 19 17 16 13 9 6 5 3 1 1 2 4 7 9 12 14 16 17 19 20 18 17 17 18 19 20 19 19 21 22 22 22 23 23 22 20 15 17 18
4 3 1 2 2 3 3 5 4 15 18 20 20 15 12 9 7 5 3 1 1 3 6 10 13 14 16 18 18 16 16 16 17 18 19 20 21 20 18 19 22 22 22 23 24 22 19 14 18
2 4 8 4 6 2 2 6 0 4 13 23 19 14 12 10 8 6 4 2 2 4 8 12 13 14 16 16 16 15 16 16 15 16 17 19 20 21 21 18 18 21 21 21 23 24 24 19 13
Wind_Direction
101 97 100 57 86 76 76 73 60 48 80 59 66 82 76 43 12 49 343 347 354 353 353 351 351 348 346 355 350 358 11 20 5 1 348 340 342 353 350 346 326 237 229 233 232 223 215 213 211
103 103 60 68 100 105 81 78 71 53 56 148 79 83 59 61 34 8 351 353 350 346 345 345 347 348 345 345 358 357 360 5 1 10 14 340 343 340 346 352 341 235 226 226 230 226 215 210 212
86 80 58 57 79 88 108 71 69 71 53 112 112 61 50 6 9 354 343 351 352 349 344 341 340 343 345 345 350 357 347 347 356 351 355 0 352 348 349 355 331 332 233 218 222 225 214 208 208
100 61 65 85 94 74 98 80 60 117 77 54 107 82 83 33 2 356 356 355 355 352 348 342 337 335 339 345 340 340 357 340 348 341 339 349 346 348 334 339 349 342 308 235 224 233 206 203 211
77 80 80 98 91 105 91 70 70 79 62 54 94 104 81 23 19 10 4 360 355 352 352 348 343 342 335 337 339 332 329 327 329 331 338 337 341 330 331 339 344 330 325 267 238 231 230 217 213
77 87 117 108 111 106 84 66 72 76 67 66 90 97 82 17 14 10 5 1 356 355 358 359 354 351 346 335 336 336 338 332 329 322 326 335 318 320 335 338 330 350 348 307 244 236 222 202 208
89 74 99 118 119 114 91 71 65 75 68 39 37 76 114 10 10 7 7 7 7 4 3 6 6 360 357 346 341 339 337 331 333 329 336 333 323 313 314 331 334 332 349 354 272 241 237 214 205
90 87 129 125 144 111 101 108 100 69 58 62 35 45 41 357 7 11 16 19 21 17 15 11 11 7 3 358 349 347 338 341 340 335 337 338 336 326 311 320 326 325 333 334 331 314 249 235 198
79 92 116 121 143 126 110 140 73 80 93 68 69 73 39 14 16 16 25 28 30 28 23 16 10 12 6 5 1 354 350 340 341 342 343 341 341 338 329 320 320 329 338 330 319 295 259 190 149
49 95 102 88 110 118 97 100 101 120 105 91 75 61 39 28 27 30 30 27 26 24 22 19 14 9 11 6 6 4 1 360 350 348 344 343 343 340 334 330 324 327 326 320 313 274 248 211 196
34 103 124 97 106 120 108 78 70 126 79 55 79 55 42 39 39 39 35 32 29 27 26 23 18 13 8 9 5 2 1 357 360 349 350 347 342 340 334 328 330 327 326 313 281 260 230 230 195
104 87 107 112 100 109 109 105 74 64 68 96 84 66 53 47 42 39 35 33 31 28 25 22 19 17 12 9 9 7 10 2 356 342 345 342 347 344 333 332 336 336 344 328 268 224 206 185 180
98 110 81 97 92 86 112 96 94 82 98 95 80 67 55 50 45 41 39 34 32 29 26 22 18 14 12 7 4 1 3 357 359 350 345 344 345 348 347 339 344 343 345 319 280 233 205 193 182
115 106 106 97 81 94 111 78 69 44 187 103 91 71 60 51 45 42 38 34 32 29 27 24 22 18 12 9 3 2 1 356 348 352 341 345 342 340 338 343 345 342 340 339 307 252 213 183 170
110 101 102 45 15 114 122 53 28 3 115 108 83 73 64 54 47 43 38 33 31 30 26 23 21 20 15 13 6 358 359 353 346 344 358 352 338 342 337 337 335 338 334 328 313 246 187 172 172
97 130 146 38 9 140 231 92 33 72 116 100 89 74 62 54 49 43 37 32 28 27 26 19 16 14 15 13 12 8 1 353 347 352 352 344 344 343 331 336 332 320 321 312 300 265 220 216 213
52 154 127 137 9 271 229 127 66 89 109 95 82 72 63 55 48 40 33 28 24 22 23 20 16 16 16 17 17 13 12 8 4 349 346 351 353 341 337 338 327 327 315 314 290 246 219 209 191
172 148 130 129 36 73 97 113 105 82 96 88 79 70 61 53 45 37 30 24 20 18 19 13 11 12 18 24 23 24 24 19 12 9 359 349 354 346 340 337 329 314 298 293 307 295 235 237 222
115 129 126 111 88 101 111 122 106 91 92 88 79 74 58 45 37 29 24 19 16 13 14 12 13 25 26 24 26 27 25 24 25 24 18 6 356 351 347 330 330 317 299 282 278 271 265 240 240
106 127 100 100 39 122 149 120 107 98 79 101 103 77 52 37 28 21 18 12 9 10 13 15 17 19 20 19 15 12 11 13 15 17 17 18 12 5 3 350 338 326 303 281 268 266 259 239 231
59 120 156 96 116 67 146 164 168 114 110 106 96 88 54 35 28 23 15 4 358 0 10 16 15 14 10 8 3 357 350 348 352 2 10 12 17 13 12 15 349 350 321 303 275 270 267 249 240
135 72 106 118 193 220 262 232 202 175 163 156 127 85 56 40 30 23 15 2 350 356 7 5 5 8 7 9 7 3 1 359 354 358 358 7 8 14 9 6 6 17 359 328 297 282 266 261 246
115 105 94 102 130 236 184 247 114 172 202 192 160 102 67 44 28 16 4 352 343 346 353 356 360 4 8 7 8 3 0 6 6 3 6 2 11 10 6 5 2 10 15 5 335 293 276 261 259
137 102 80 84 146 233 154 239 190 189 217 186 183 165 109 54 24 14 5 355 343 338 348 348 350 1 6 9 10 8 2 356 352 354 359 7 10 14 20 1 1 358 6 8 352 337 304 256 257
126 138 166 216 207 239 113 253 295 196 183 180 174 171 144 62 19 7 15 13 2 344 338 337 346 0 6 5 1 359 356 353 354 353 354 357 4 9 15 16 3 356 349 359 3 349 340 269 234
180 191 224 272 219 115 148 232 251 190 175 173 173 175 178 157 34 32 38 28 22 1 352 351 356 356 358 359 358 358 356 352 350 352 353 353 357 5 7 15 14 3 356 353 355 4 357 332 304
162 205 101 105 114 236 205 266 221 176 193 197 194 191 202 197 137 136 85 52 34 12 359 352 350 352 351 357 356 353 352 357 358 358 356 355 353 356 1 7 16 12 5 359 359 347 359 3 331
257 138 128 213 223 247 207 265 244 202 208 202 202 203 202 195 183 183 162 63 19 10 0 351 349 348 346 349 352 354 355 359 0 2 3 2 358 353 356 359 8 14 10 15 7 3 350 355 5
149 191 68 110 225 244 282 233 199 209 203 198 199 197 193 189 192 201 194 175 337 353 349 343 336 334 335 340 345 347 349 355 358 1 5 7 5 0 354 355 357 9 13 11 13 14 6 354 355
295 220 183 212 194 222 330 265 306 236 200 192 188 187 188 193 196 202 204 219 279 332 335 330 327 331 332 335 338 338 338 341 346 353 359 2 2 2 3 353 353 357 9 11 8 13 14 9 356